Date,TemperatureHighF,TemperatureAvgF,TemperatureLowF,DewpointHighF,DewpointAvgF,DewpointLowF,HumidityHigh,HumidityAvg,HumidityLow,PressureMaxIn,PressureMinIn,WindSpeedMaxMPH,WindSpeedAvgMPH,GustSpeedMaxMPH,PrecipitationSumIn
2013-2-15,56,44,31,38,28,22,76,55,33,30.31,30.21,0,0,0,0.00
2013-2-16,61,42,28,34,28,21,85,61,31,30.34,30.12,0,0,0,0.00
2013-2-17,72,55,38,45,34,27,73,49,24,30.13,29.89,0,0,0,0.00
2013-2-18,80,62,51,59,46,33,77,58,29,30.04,29.68,0,0,0,0.00
2013-2-19,71,54,38,44,30,25,67,43,21,30.27,30.03,0,0,0,0.00
2013-2-20,73,45,40,56,35,30,84,69,40,30.14,29.77,14,3,14,0.14
2013-2-21,72,52,42,52,41,34,91,70,36,29.86,29.60,15,4,15,0.11
2013-2-22,57,43,35,38,30,25,82,63,38,30.07,29.85,12,3,12,0.00
2013-2-23,69,44,32,36,29,25,84,58,26,30.03,29.87,11,2,11,0.00
2013-2-24,72,52,32,44,37,26,87,59,32,29.90,29.60,14,4,14,0.00
2013-2-25,64,53,40,55,40,30,84,62,30,29.60,29.39,19,7,19,0.01
2013-2-26,63,46,34,38,33,28,83,63,35,29.85,29.56,16,4,16,0.00
2013-2-27,62,45,31,37,29,23,89,57,29,30.14,29.83,10,2,10,0.00
2013-2-28,63,46,34,33,28,24,78,53,28,30.21,30.08,10,2,10,0.00
2013-3-1,58,43,28,34,29,23,85,60,39,30.23,30.12,10,2,10,0.00
2013-3-2,58,40,30,28,24,21,80,56,27,30.35,30.17,12,2,12,0.00
2013-3-3,70,45,28,43,29,23,84,58,29,30.18,29.79,14,4,14,0.00
2013-3-4,80,68,55,57,51,42,76,56,40,29.79,29.57,16,7,16,0.00
2013-3-5,64,49,40,56,30,21,76,50,23,30.29,29.64,16,4,16,0.00
2013-3-6,72,45,36,30,26,20,62,48,16,30.39,30.13,11,2,11,0.00
2013-3-7,73,52,32,36,31,24,79,49,19,30.20,30.04,12,3,12,0.00
2013-3-8,66,59,50,55,49,36,77,70,48,30.15,29.96,10,4,10,0.00
2013-3-9,71,66,59,62,58,53,85,78,72,29.97,29.61,21,8,21,0.04
2013-3-10,65,52,38,60,42,30,92,71,51,30.02,29.64,14,3,14,0.50
2013-3-11,68,44,31,33,29,23,86,61,25,30.05,29.94,9,1,9,0.00
2013-3-12,79,51,30,37,32,26,87,55,19,30.23,29.98,10,2,10,0.00
2013-3-13,83,55,36,41,35,31,86,54,21,30.39,30.23,10,2,10,0.00
2013-3-14,78,58,39,49,41,32,80,56,33,30.30,30.12,12,3,12,0.00
2013-3-15,81,65,52,55,49,44,86,58,29,30.12,29.85,16,5,16,0.00
2013-3-16,83,69,57,60,55,50,88,64,41,29.85,29.65,19,7,19,0.00
2013-3-17,79,68,55,63,58,49,89,72,54,29.74,29.59,13,4,13,0.00
2013-3-18,79,64,52,64,52,40,91,68,38,29.95,29.58,15,4,15,0.00
2013-3-19,72,58,43,45,40,36,78,54,34,30.05,29.89,12,3,12,0.00
2013-3-20,80,60,45,42,36,30,69,45,19,30.23,30.02,11,3,11,0.00
2013-3-21,69,60,48,55,42,31,73,53,41,29.93,29.54,16,7,16,0.00
2013-3-22,64,56,48,59,50,44,88,82,72,29.78,29.54,12,4,13,0.00
2013-3-23,58,51,46,52,47,44,94,88,79,29.89,29.59,10,3,10,0.31
2013-3-24,58,47,39,48,33,24,90,61,36,30.10,29.69,14,4,14,0.02
2013-3-25,58,43,27,27,22,17,80,46,23,30.33,30.10,10,2,11,0.00
2013-3-26,68,43,24,31,23,18,83,50,23,30.43,30.25,9,1,9,0.00
2013-3-27,72,53,32,39,32,24,77,48,24,30.27,30.05,14,4,14,0.00
2013-3-28,72,62,49,56,51,38,83,68,53,30.18,30.04,12,4,12,0.00
2013-3-29,76,67,59,59,57,54,85,71,54,30.13,30.00,10,4,10,0.00
2013-3-30,74,66,56,65,60,53,92,82,67,30.03,29.83,11,3,11,0.95
2013-3-31,83,67,55,63,59,52,93,77,44,29.91,29.76,15,2,15,0.54
2013-4-1,87,64,47,57,51,44,93,66,31,30.01,29.87,8,1,8,0.00
2013-4-2,74,62,50,64,54,42,91,76,64,29.98,29.82,16,5,16,0.27
2013-4-3,53,49,45,47,44,41,92,84,75,30.08,29.89,13,4,13,0.62
2013-4-4,50,46,42,44,41,39,91,84,75,30.12,30.02,6,2,6,0.03
2013-4-5,71,55,39,50,44,36,92,71,45,30.17,29.98,7,1,7,0.00
2013-4-6,76,64,52,59,53,48,86,69,47,29.98,29.79,17,4,17,0.00
2013-4-7,73,67,60,63,59,55,87,77,68,29.87,29.70,15,5,15,0.00
2013-4-8,76,70,62,66,62,58,87,76,64,29.72,29.62,17,7,17,0.00
2013-4-9,85,75,68,66,64,61,83,69,49,29.68,29.59,19,7,19,0.00
2013-4-10,45,43,41,42,39,38,92,87,84,29.87,29.77,13,2,13,0.51
2013-4-11,64,47,38,44,36,32,86,68,43,29.91,29.74,10,2,10,0.04
2013-4-12,77,50,39,53,42,36,93,78,33,29.93,29.79,7,1,7,0.00
2013-4-13,79,62,46,56,48,42,90,64,33,29.95,29.72,14,3,14,0.00
2013-4-14,82,68,53,67,58,47,87,71,57,29.73,29.51,13,4,13,0.00
2013-4-15,86,76,68,71,67,63,90,75,54,29.71,29.57,13,5,13,0.00
2013-4-16,89,78,71,70,67,65,84,70,47,29.85,29.70,12,5,12,0.00
2013-4-17,87,78,74,71,69,66,88,73,52,29.84,29.60,19,8,19,0.00
2013-4-18,75,57,45,70,50,35,89,76,55,30.06,29.52,21,4,21,1.34
2013-4-19,63,49,36,41,34,30,88,61,31,30.19,30.04,9,2,9,0.00
2013-4-20,71,57,41,46,39,35,85,55,32,30.15,29.96,14,4,14,0.00
2013-4-21,72,59,43,52,45,37,83,63,42,30.16,30.01,14,3,14,0.00
2013-4-22,78,64,50,62,53,44,83,68,54,30.06,29.80,10,3,10,0.00
2013-4-23,70,58,45,64,52,38,93,82,72,30.06,29.75,13,4,13,0.00
2013-4-24,65,47,41,45,38,35,87,73,42,30.22,30.06,13,4,13,0.02
2013-4-25,75,61,49,49,44,39,78,56,34,30.26,30.09,11,3,11,0.00
2013-4-26,77,66,56,67,57,44,84,73,55,30.12,29.92,10,4,10,0.00
2013-4-27,79,70,57,66,62,52,91,76,56,30.01,29.91,8,2,8,0.00
2013-4-28,80,65,49,67,58,46,95,79,58,30.00,29.80,8,1,8,0.00
2013-4-29,85,72,58,68,61,55,93,70,44,29.85,29.73,11,2,11,0.00
2013-4-30,83,72,58,67,63,53,93,73,50,29.78,29.67,10,2,10,0.00
2013-5-1,86,72,62,69,63,58,93,75,49,29.89,29.73,9,2,9,0.00
2013-5-2,67,55,42,62,50,37,90,83,73,30.21,29.87,13,3,13,0.00
2013-5-3,67,52,40,39,35,30,83,58,28,30.19,29.95,15,3,15,0.00
2013-5-4,73,56,38,43,37,30,88,54,22,29.95,29.80,11,3,11,0.00
2013-5-5,67,52,43,47,41,37,82,66,46,30.06,29.94,12,3,12,0.00
2013-5-8,75,74,73,60,59,59,63,59,58,29.86,29.81,5,3,5,0.00
2013-5-9,73,69,66,68,64,58,93,84,61,29.91,29.75,10,2,10,0.00
2013-5-10,84,72,65,68,64,61,94,78,54,29.95,29.80,6,1,6,0.01
2013-5-11,82,69,58,61,54,51,87,62,35,30.07,29.92,9,2,9,0.00
2013-5-12,79,66,54,54,45,35,76,51,21,30.18,30.06,7,2,7,0.00
2013-5-13,85,68,50,53,49,43,79,55,32,30.17,30.04,4,1,4,0.00
2013-5-14,86,72,58,63,56,51,89,59,31,30.10,29.93,7,2,7,0.00
2013-5-15,79,70,67,68,65,58,93,85,63,29.98,29.75,13,5,13,0.99
2013-5-16,80,72,63,72,67,61,93,85,74,29.84,29.68,10,2,10,1.04
2013-5-17,89,79,70,76,72,67,94,81,62,29.80,29.71,11,2,11,0.01
2013-5-18,90,80,71,76,71,67,88,75,58,29.85,29.70,12,3,12,0.00
2013-5-19,89,80,71,73,69,66,88,72,52,29.79,29.63,14,4,14,0.00
2013-5-20,88,80,72,74,70,68,87,74,58,29.77,29.61,14,4,14,0.00
2013-5-21,86,75,63,74,68,60,93,81,65,29.78,29.58,22,3,22,1.46
2013-5-22,87,72,61,67,62,58,93,75,44,29.86,29.75,6,1,6,0.00
2013-5-23,87,76,67,75,70,64,94,81,60,30.00,29.80,9,2,14,0.00
2013-5-24,86,78,71,76,72,66,91,81,69,30.08,29.92,11,2,11,0.01
2013-5-25,85,72,68,74,68,65,93,87,64,30.09,29.96,10,2,10,0.01
2013-5-26,87,77,71,74,70,67,90,80,60,30.02,29.87,9,4,11,0.00
2013-5-27,87,78,72,72,69,67,88,74,56,29.93,29.74,14,3,14,0.00
2013-5-28,86,77,71,70,68,66,87,76,53,29.83,29.70,10,4,10,0.00
2013-5-29,85,78,73,72,70,68,83,75,64,29.78,29.66,15,6,15,0.02
2013-5-30,88,80,74,75,72,69,84,75,64,29.74,29.63,14,4,14,0.00
2013-5-31,92,83,77,76,73,72,85,73,54,29.77,29.61,11,3,11,0.00
2013-6-1,90,81,74,77,72,65,89,76,60,29.85,29.66,10,3,10,0.06
2013-6-2,86,75,63,70,61,52,89,65,33,29.97,29.83,9,2,9,0.00
2013-6-3,90,74,59,65,61,55,90,66,38,29.91,29.76,7,1,7,0.00
2013-6-4,91,79,67,72,67,62,86,69,50,29.93,29.72,12,3,12,0.00
2013-6-5,91,80,70,74,70,65,88,71,49,29.89,29.67,15,2,15,0.00
2013-6-6,80,73,67,71,67,64,92,82,69,29.84,29.69,8,2,8,0.19
2013-6-7,86,73,61,65,60,56,90,68,38,29.91,29.80,9,1,9,0.01
2013-6-8,89,74,58,65,61,56,92,66,40,29.87,29.73,9,2,9,0.01
2013-6-9,90,77,69,72,68,63,92,76,53,29.87,29.77,7,1,7,0.77
2013-6-10,96,82,67,75,70,64,92,69,41,29.88,29.82,6,2,6,0.00
2013-6-11,93,82,72,75,72,67,91,71,49,29.95,29.84,9,2,9,0.00
2013-6-12,95,83,75,76,72,69,91,71,46,29.98,29.84,9,1,9,0.00
2013-6-13,100,85,74,75,72,69,89,68,39,29.98,29.81,6,1,6,0.00
2013-6-14,100,86,73,77,72,68,89,67,39,29.91,29.79,7,1,7,0.00
2013-6-15,95,83,76,78,74,69,84,73,53,29.93,29.82,20,2,20,0.00
2013-6-16,93,79,74,77,73,68,92,83,46,29.93,29.80,7,1,7,0.00
2013-7-2,91,82,64,59,54,48,69,40,25,29.97,29.90,9,2,9,0.00
2013-7-3,94,74,58,64,55,51,84,57,28,29.98,29.85,7,1,7,0.00
2013-7-4,95,79,67,68,62,57,80,58,35,29.94,29.83,7,1,7,0.01
2013-7-5,97,81,64,69,63,59,87,58,30,29.93,29.79,9,1,9,0.00
2013-7-6,96,82,67,72,64,59,84,56,33,29.88,29.78,11,2,11,0.00
2013-7-7,98,85,72,74,68,62,81,58,36,29.92,29.83,10,2,10,0.00
2013-7-8,98,85,74,74,71,67,87,65,41,30.01,29.90,11,2,11,0.00
2013-7-9,101,88,74,75,68,64,83,56,31,30.04,29.89,8,2,8,0.00
2013-7-10,102,90,80,73,70,66,75,54,34,29.98,29.81,6,1,6,0.00
2013-7-11,101,86,75,74,70,66,85,62,39,29.90,29.80,10,2,10,0.00
2013-7-12,100,85,71,74,70,67,90,64,38,29.90,29.79,10,1,10,0.00
2013-7-13,99,86,75,71,65,58,76,51,34,29.92,29.80,9,2,9,0.00
2013-7-14,77,74,69,70,66,58,89,75,53,29.93,29.80,8,1,8,0.10
2013-7-15,79,72,68,72,68,66,92,88,79,30.02,29.86,16,1,16,0.73
2013-7-16,90,77,70,75,71,67,92,83,57,30.11,30.00,16,1,16,0.07
2013-7-17,91,81,71,76,72,68,93,75,56,30.14,30.04,10,1,10,0.02
2013-7-18,97,85,70,76,72,67,92,66,42,30.09,29.91,7,1,7,0.00
2013-7-19,87,79,74,76,72,69,89,80,61,29.98,29.85,8,2,8,0.05
2013-7-20,92,75,72,76,71,68,92,87,54,29.90,29.78,10,0,10,0.86
2013-7-21,94,83,73,77,73,70,92,73,48,29.86,29.76,17,2,17,0.00
2013-7-22,97,83,76,77,74,71,89,75,45,29.90,29.78,8,2,8,0.00
2013-7-23,97,88,79,78,75,70,84,66,50,29.90,29.73,9,2,9,0.00
2013-7-24,93,79,73,75,70,67,90,75,51,29.95,29.77,16,2,16,0.04
2013-7-25,95,78,70,77,70,66,90,78,52,29.97,29.88,9,1,9,0.00
2013-7-26,95,82,76,75,73,68,90,74,50,29.94,29.74,11,1,11,0.48
2013-7-27,90,77,72,73,70,67,91,78,49,29.93,29.85,10,4,10,0.00
2013-7-28,91,72,64,73,66,61,91,82,52,29.92,29.80,9,1,9,0.00
2013-7-29,96,85,76,76,72,67,89,69,44,29.93,29.84,11,3,12,0.00
2013-7-30,84,82,80,69,66,64,70,58,52,29.93,29.90,7,2,8,0.00
2013-8-1,88,84,81,72,71,70,74,67,56,29.86,29.82,4,1,6,0.00
2013-8-2,87,79,76,73,71,69,82,76,63,29.86,29.83,4,1,4,0.00
2013-9-13,100,87,74,74,69,65,83,57,36,29.88,29.74,11,2,11,0.00
2013-9-14,99,83,72,66,61,57,63,49,32,29.90,29.79,10,3,10,0.00
2013-9-15,100,83,71,68,62,56,62,50,34,29.95,29.86,8,2,8,0.00
2013-9-16,101,84,70,73,65,62,77,54,33,30.00,29.87,9,1,9,0.00
2013-9-17,97,85,76,70,66,64,71,56,36,30.00,29.85,9,1,9,0.00
2013-9-18,98,84,75,72,66,61,74,57,32,29.94,29.79,12,2,12,0.00
2013-9-19,98,82,76,76,71,64,89,71,39,29.91,29.77,8,2,8,0.59
2013-9-20,76,73,72,72,70,67,92,89,83,29.85,29.74,13,3,13,5.81
2013-9-21,94,73,60,67,57,51,87,62,25,29.87,29.76,12,3,12,0.00
2013-9-22,91,69,55,60,54,49,90,63,28,29.85,29.72,9,1,9,0.00
2013-9-23,90,71,55,62,56,50,86,62,33,29.79,29.67,8,1,8,0.00
2013-9-24,100,78,63,68,59,53,88,59,22,29.83,29.73,11,1,11,0.00
2013-9-25,104,68,56,64,55,51,86,67,22,29.82,29.69,7,0,7,0.00
2013-9-26,95,78,61,63,59,52,81,54,32,29.81,29.71,10,2,10,0.00
2013-9-27,88,74,62,74,64,56,85,71,57,29.87,29.78,11,2,11,0.00
2013-9-28,87,76,68,76,70,64,91,82,67,29.93,29.81,8,2,8,1.09
2013-9-29,92,70,64,67,62,58,92,79,36,29.95,29.81,8,1,8,0.01
2013-9-30,90,75,62,69,62,55,88,67,39,29.84,29.72,8,1,8,0.00
2013-10-1,90,79,71,73,70,68,92,76,51,29.86,29.76,8,3,9,0.00
2013-10-2,89,79,73,73,71,68,90,78,56,29.91,29.80,10,3,10,0.01
2013-10-3,90,80,72,74,71,69,91,76,51,29.86,29.74,9,3,9,0.00
2013-10-4,90,80,74,74,71,68,89,74,50,29.84,29.76,10,3,10,0.00
2013-10-5,77,76,76,72,71,69,86,83,75,29.82,29.80,6,3,7,0.00
2013-10-10,85,70,53,64,58,49,86,67,40,29.98,29.82,9,2,9,0.00
2013-10-11,87,75,64,72,67,61,92,76,58,29.88,29.75,9,3,9,0.00
2013-10-12,89,76,70,76,70,65,91,82,65,29.98,29.80,9,2,9,0.23
2013-10-13,76,71,68,70,67,65,93,88,78,30.12,29.96,8,2,8,0.01
2013-10-14,74,70,68,70,68,65,93,91,86,30.06,29.85,8,3,8,0.19
2013-10-15,74,68,56,72,66,54,92,91,88,29.94,29.82,9,2,9,2.09
2013-10-16,58,56,54,55,53,52,93,90,86,29.98,29.88,8,2,8,0.77
2013-10-17,76,60,46,55,50,44,92,73,40,30.03,29.90,6,1,6,0.00
2013-10-18,72,60,48,57,51,45,92,74,50,29.94,29.81,9,2,9,0.02
2013-10-19,71,54,43,54,42,39,89,68,35,30.11,29.94,11,2,11,0.00
2013-10-20,73,56,39,48,43,36,90,66,37,29.99,29.81,10,2,10,0.01
2013-10-21,74,61,52,65,55,45,89,81,73,30.00,29.83,8,2,11,0.03
2013-10-22,77,60,43,52,46,40,91,65,31,30.07,29.93,8,1,8,0.00
2013-10-23,85,64,45,56,50,42,90,63,32,30.04,29.95,8,1,8,0.00
2013-10-24,84,66,50,57,52,46,85,63,40,30.18,29.98,6,2,6,0.00
2013-10-25,69,58,50,48,45,40,80,63,46,30.32,30.16,7,3,7,0.00
2013-10-26,77,61,50,64,55,44,92,79,62,30.16,29.95,14,2,14,1.97
2013-10-27,70,63,58,60,58,55,92,85,66,30.03,29.92,11,1,11,0.01
2013-10-28,78,66,53,68,61,50,93,84,67,30.03,29.93,9,2,9,0.00
2013-10-29,78,73,68,69,67,64,90,83,72,30.02,29.92,10,4,10,0.00
2013-10-30,72,68,64,68,64,61,94,90,83,29.96,29.72,23,5,23,1.35
2013-10-31,79,68,52,69,57,42,94,71,29,29.80,29.58,14,3,14,0.03
2013-11-1,86,61,46,55,48,43,91,66,32,29.97,29.73,8,1,8,0.00
2013-11-2,72,57,43,46,40,34,81,56,28,30.18,29.96,12,2,12,0.00
2013-11-3,68,53,37,49,41,33,89,66,40,30.13,29.92,13,3,13,0.00
2013-11-4,60,57,54,58,52,45,93,85,65,30.04,29.93,10,2,11,0.00
2013-11-5,69,64,60,67,62,58,94,93,89,29.99,29.87,8,2,8,0.96
2013-11-6,70,57,44,68,52,40,94,85,63,30.26,29.87,10,2,10,0.36
2013-11-7,71,55,38,46,42,35,92,65,35,30.39,30.25,8,1,8,0.01
2013-11-8,67,54,38,49,43,36,91,70,38,30.29,30.05,8,1,8,0.00
2013-11-9,66,57,49,51,47,44,86,70,56,30.15,30.04,8,2,8,0.00
2013-11-10,83,58,47,54,47,43,87,70,31,30.25,30.14,5,1,5,0.00
2013-11-11,86,58,43,57,48,39,89,71,35,30.20,30.07,5,0,5,0.00
2013-11-12,59,49,34,54,37,25,90,65,34,30.57,30.17,16,4,16,0.00
2013-11-13,67,41,28,36,26,23,86,59,25,30.58,30.28,7,1,7,0.00
2013-11-14,65,47,29,45,33,24,87,62,27,30.29,29.96,9,2,9,0.00
2013-11-15,73,60,52,59,51,44,88,74,56,29.95,29.77,6,2,6,0.00
2013-11-16,76,70,62,69,64,59,91,83,69,29.79,29.62,13,3,13,0.00
2013-11-17,93,76,60,70,62,43,88,66,31,29.92,29.62,9,3,9,0.00
2013-11-18,78,64,54,44,39,32,56,41,21,30.08,29.92,10,3,10,0.00
2013-11-19,70,59,52,41,35,30,56,43,25,30.10,29.95,11,3,11,0.00
2013-11-20,65,57,43,50,41,32,71,56,40,29.96,29.83,10,3,10,0.00
2013-11-21,72,66,50,69,61,46,92,85,62,30.08,29.87,10,2,10,0.23
2013-11-22,50,39,36,46,36,34,92,90,87,30.31,30.03,14,4,14,0.41
2013-11-23,44,40,37,41,36,30,92,85,67,30.43,30.29,12,5,12,0.02
2013-11-24,39,36,34,30,27,24,78,71,55,30.47,30.24,10,4,10,0.03
2013-11-25,38,36,33,35,32,28,91,88,77,30.26,30.04,9,2,9,0.56
2013-11-26,56,42,36,38,33,25,91,73,46,30.25,29.98,13,3,13,0.00
2013-11-27,55,37,25,27,23,18,85,59,31,30.36,30.24,11,2,11,0.00
2013-11-28,56,35,24,32,25,20,88,70,29,30.37,30.26,9,1,9,0.00
2013-11-29,63,42,24,41,31,20,87,68,39,30.44,30.26,6,0,6,0.00
2013-11-30,69,51,36,49,41,30,87,68,41,30.27,30.07,10,2,10,0.00
2013-12-1,70,59,48,58,53,44,92,82,65,30.09,29.80,11,3,11,0.00
2013-12-2,75,55,40,60,48,38,94,77,43,29.80,29.58,6,1,6,0.00
2013-12-3,77,56,40,54,44,37,93,70,30,29.59,29.44,8,1,8,0.01
2013-12-4,82,65,51,64,57,41,93,77,50,29.77,29.51,10,3,10,0.00
2013-12-5,51,36,31,41,29,26,90,76,65,30.05,29.75,12,4,12,0.01
2013-12-6,33,29,26,31,26,21,91,87,83,30.39,29.96,10,1,10,0.00
2013-12-7,31,27,24,28,24,20,91,88,85,30.42,30.18,7,0,7,0.00
2013-12-8,36,34,30,34,31,28,92,90,88,30.19,29.96,4,1,4,0.02
2013-12-9,36,33,29,33,30,22,91,88,75,30.30,30.05,10,3,10,0.00
2013-12-10,59,32,20,34,22,16,88,70,37,30.42,30.26,7,1,7,0.00
2013-12-11,53,35,22,36,28,18,88,74,50,30.48,30.24,9,1,9,0.00
2013-12-12,62,39,25,39,28,21,90,67,29,30.51,30.22,9,1,9,0.00
2013-12-13,45,42,39,43,37,30,93,83,66,30.23,29.73,7,2,7,0.35
2013-12-14,46,41,30,45,37,26,95,86,72,30.23,29.71,10,2,10,0.01
2013-12-15,63,42,25,42,31,22,91,69,36,30.26,30.14,6,1,6,0.00
2013-12-16,68,48,35,41,35,31,86,64,35,30.18,30.07,8,2,8,0.00
2013-12-17,85,52,37,48,38,32,86,63,25,30.20,30.11,5,1,5,0.00
2013-12-18,72,51,32,49,39,28,90,66,37,30.18,29.94,11,2,11,0.00
2013-12-19,74,65,53,62,56,49,89,75,61,29.94,29.69,14,6,14,0.00
2013-12-20,71,62,39,65,57,37,92,84,74,29.78,29.64,10,3,10,0.04
2013-12-21,53,44,37,51,42,35,94,92,91,29.68,29.52,15,1,15,1.76
2013-12-22,51,39,30,49,34,26,94,82,64,30.29,29.68,7,2,7,0.01
2013-12-23,59,36,24,36,28,21,89,73,40,30.46,30.27,9,1,9,0.00
2013-12-24,55,38,25,35,29,22,88,71,44,30.45,30.20,9,2,9,0.00
2013-12-25,61,50,37,45,40,31,81,67,53,30.31,30.19,7,2,7,0.00
2013-12-26,65,42,28,42,33,25,90,73,42,30.35,30.23,6,1,6,0.00
2013-12-27,62,41,30,45,33,27,89,77,43,30.36,30.24,6,1,6,0.00
2013-12-28,63,46,32,43,36,29,89,70,44,30.23,29.89,5,1,5,0.00
2013-12-29,56,41,32,45,32,25,85,71,63,30.18,29.87,9,2,9,0.00
2013-12-30,50,35,28,29,24,21,79,64,42,30.31,30.14,4,1,7,0.00
2013-12-31,60,40,24,34,26,20,87,61,30,30.35,30.14,8,1,8,0.00
2014-1-1,69,49,33,50,39,28,88,71,52,30.14,29.80,13,4,13,0.00
2014-1-2,50,33,23,30,21,17,81,62,36,30.37,30.05,13,3,13,0.00